SL-14 DEB, 45283

Orbit data source: Space-Track

SL-14 DEB, 45283 is space debris in LEO originally from a launch on Thu, 15 Aug 1991 UTC launched from the Plesetsk Missile And Space Complex (PKMTR). Debris objects in space refer to the collection of defunct objects orbiting the Earth. Examples of debris include non-operational satellites, rocket bodies, and fragments generated from explosions, collisions, or faulty payload assembly.

Loading next visibility...
Identifier
45283, 1991-056V
Orbit
LEO
Country
Flag of CISCIS
Related business
Manufacturer
Unknown
Mission
Spacecraft
Bus & Motor
Unknown
Mass
Unknown
Launch date (UTC)
1991-08-15 (34 years ago)
Launch vehicle
Unknown
Launch site
Plesetsk Missile And Space Complex (PKMTR)
Object type
Payload
Rocket body
Debris
Shape & HBR
Unknown shape, 0.1 m
Radar Cross Section
Small (<0.1 m²)

Expand to show TLE details & history
Last TLE update: 19 hours ago

TLE from 19 hours ago
0 SL-14 DEB
1 45283U 91056V   25348.57233515  .00002877  00000-0  11229-1 0  9996
2 45283  82.5242  20.3561 0250487   8.5993 351.9279 12.78859048270797
Epoch: 2025-12-14T13:44Z
TLE epoch observation values (Epoch: 2025-12-14T13:44:09.756Z)
Latitude
-0.0001°
Longitude
90.83211°
Altitude
1,157.316 km
Speed
7.364 km/s
True Right ascension
01h 21m 25s
True Declination
0° 00' 00"
Sunlit
Object was in daylight at epoch
Visualization orbit readout
Latitude
Unknown
Longitude
Unknown
Altitude
Unknown
Speed
Unknown
Apparent Right ascension
Unknown
Apparent Declination
Unknown
Sunlit
N/A
Visualization observer readout
Local Sidereal Time
07:49:19
Azimuth
Unknown
Elevation
Unknown
Doppler factor
Unknown
Orbital elements
Apogee altitude
1,536.771 km
Perigee altitude
1,149.944 km
Semi-major axis
7,721.495 km
Eccentricity
0.02505
Inclination
82.5242°
RAAN
20.3561°
Arg. of periapsis
8.5993°
True anomaly
351.51197°
Mean anomaly
351.9279°
Eccentric anomaly
351.72125°
Mean motion
3.19883 °/min
Orbital period
112.54 mins
BSTAR
0.011229
Loading maneuver chart data...
Computing Atmospheric mass density...
Loading historical data...
Loading historical data...
Loading historical data...
Loading historical data...
Loading historical data...
Loading historical data...
Loading historical data...

Documentation

Showing up to 5 results
|